WZZ24K EPKK-EPGD

Flight info

Callsign WZZ24K
Flight time N/A
Altitude 34000
Route NAVUR N744 OVBOR N133 GRUDA Z95 OSLOG
Aircraft A20N/M-SDE2E3FGHIRWXY/LB1

Departure

Time N/A
Airport Kraków John Paul II International Airport (EPKK)

Arrival

Time 2026-05-03 21:10
Airport Gdańsk Lech Wałęsa Airport (EPGD)
Time Latitude Longitude Altitude Speed Heading
2026-05-03 20:56 53.36656 18.63654 18790 ft 385 kts 345°
2026-05-03 20:56 53.39281 18.62772 18219 ft 382 kts 345°
2026-05-03 20:56 53.41881 18.61896 17588 ft 379 kts 345°
2026-05-03 20:57 53.44455 18.61026 16987 ft 375 kts 345°
2026-05-03 20:57 53.47005 18.60164 16396 ft 372 kts 345°
2026-05-03 20:57 53.49505 18.59318 15805 ft 370 kts 345°
2026-05-03 20:57 53.52023 18.58465 15245 ft 367 kts 345°
2026-05-03 20:58 53.54514 18.57620 14679 ft 364 kts 345°
2026-05-03 20:58 53.56993 18.56777 14143 ft 361 kts 345°
2026-05-03 20:58 53.59458 18.55938 13583 ft 359 kts 345°
2026-05-03 20:58 53.61869 18.55116 13054 ft 355 kts 345°
2026-05-03 20:59 53.64286 18.54291 12513 ft 351 kts 346°
2026-05-03 20:59 53.66678 18.53474 11965 ft 348 kts 346°
2026-05-03 20:59 53.69043 18.52665 11451 ft 345 kts 346°
2026-05-03 20:59 53.71391 18.51862 10933 ft 342 kts 346°
2026-05-03 21:00 53.73710 18.51067 10417 ft 339 kts 346°
2026-05-03 21:00 53.75228 18.50547 10266 ft 331 kts 346°
2026-05-03 21:00 53.78147 18.49551 10079 ft 312 kts 346°
2026-05-03 21:00 53.80235 18.48838 9966 ft 298 kts 345°
2026-05-03 21:01 53.82239 18.48151 9706 ft 291 kts 345°
2026-05-03 21:01 53.84216 18.47469 9279 ft 289 kts 345°
2026-05-03 21:01 53.86168 18.46793 8851 ft 288 kts 345°
2026-05-03 21:01 53.88124 18.46116 8434 ft 286 kts 345°
2026-05-03 21:02 53.90077 18.45441 8032 ft 284 kts 345°
2026-05-03 21:02 53.91991 18.44780 7636 ft 283 kts 345°
2026-05-03 21:02 53.93916 18.44115 7248 ft 281 kts 345°
2026-05-03 21:02 53.95809 18.43461 6869 ft 280 kts 345°
2026-05-03 21:03 53.97718 18.42799 6488 ft 278 kts 345°
2026-05-03 21:03 53.99590 18.42150 6093 ft 277 kts 345°
2026-05-03 21:03 54.01476 18.41497 5683 ft 276 kts 345°
2026-05-03 21:03 54.03355 18.40845 5308 ft 274 kts 345°
2026-05-03 21:04 54.05218 18.40197 5052 ft 270 kts 345°
2026-05-03 21:04 54.07065 18.39553 4989 ft 274 kts 345°
2026-05-03 21:04 54.08942 18.38900 4991 ft 273 kts 345°
2026-05-03 21:04 54.10788 18.38255 4992 ft 274 kts 345°
2026-05-03 21:05 54.12654 18.37604 4996 ft 274 kts 345°
2026-05-03 21:05 54.14529 18.36951 4994 ft 273 kts 345°
2026-05-03 21:05 54.16405 18.36296 4987 ft 273 kts 345°
2026-05-03 21:05 54.18249 18.35651 4994 ft 273 kts 345°
2026-05-03 21:06 54.20116 18.34997 4997 ft 273 kts 345°
2026-05-03 21:06 54.21979 18.34344 4996 ft 273 kts 345°
2026-05-03 21:06 54.23841 18.33691 4992 ft 272 kts 345°
2026-05-03 21:06 54.25701 18.33043 5000 ft 273 kts 345°
2026-05-03 21:07 54.27563 18.32511 4995 ft 274 kts 349°
2026-05-03 21:07 54.29453 18.32099 4998 ft 273 kts 348°
2026-05-03 21:07 54.31323 18.31601 4885 ft 271 kts 347°
2026-05-03 21:07 54.33156 18.31111 4579 ft 269 kts 347°
2026-05-03 21:08 54.35049 18.30599 4167 ft 269 kts 347°
2026-05-03 21:08 54.36863 18.30102 3793 ft 265 kts 348°
2026-05-03 21:08 54.38551 18.30454 3810 ft 225 kts 39°
2026-05-03 21:08 54.39068 18.32637 3678 ft 191 kts 82°
2026-05-03 21:09 54.39371 18.34896 2885 ft 200 kts 76°
2026-05-03 21:09 54.39634 18.37241 2056 ft 201 kts 87°
2026-05-03 21:09 54.39511 18.39550 1387 ft 187 kts 110°
2026-05-03 21:09 54.39038 18.41547 1055 ft 179 kts 115°
2026-05-03 21:10 54.38569 18.43352 824 ft 153 kts 112°
2026-05-03 21:10 54.38169 18.44958 557 ft 138 kts 113°
2026-05-03 21:10 54.37815 18.46377 469 ft 117 kts 113°
2026-05-03 21:10 54.37616 18.47206 472 ft 37 kts 97°
2026-05-03 21:11 54.37606 18.47640 477 ft 25 kts 78°
2026-05-03 21:11 54.37678 18.47631 480 ft 18 kts 305°
2026-05-03 21:11 54.37801 18.47157 473 ft 83 kts 293°
2026-05-03 21:11 54.37998 18.46358 468 ft 29 kts 295°
2026-05-03 21:12 54.38048 18.46354 469 ft 19 kts 39°
2026-05-03 21:12 54.38110 18.46411 470 ft 0 kts 15°